Powrót do katalogu

STARLINK-34532

AktywnyŁącznośćVLEO
NORAD 64607·PAYLOAD·🇺🇸 United States

Wystrzelony Jun 25, 2025 z Cape Canaveral Space Force Station

Loading…

Następne Przeloty (najbliższe 24 godziny)

TLE

ŚwieżeSource: CelesTrak SupGP

Epoka: Sep 14, 2026, 20:56 UTC

1 64607C 25137P   26257.87270833  .00001090  00000+0  32179-4 0  2573
2 64607  53.1579 183.6983 0001301  88.4441  81.3022 15.34401092    13

Śledź STARLINK-34532 w czasie rzeczywistym z AllMySat

Download on the App Store